Lid_Strength_Index
-1 -1 0 2 8 8 9 9 9 9 9 7 6 7 7 7 7 9 1 0 -0 -0 -2 -1 -2 -2 -2 -2 -2 -2 -2 -3 -2 -2 -2 -2 -2 -2 -2 -2 -1 -1 -2 -2 -2 -1 -1 -1 -1
-1 0 1 4 9 10 9 9 9 7 7 6 6 6 7 8 5 3 2 -0 -1 -1 -2 -2 -2 -2 -2 -2 -2 -2 -2 -2 -2 -2 -2 -2 -2 -2 -2 -2 -2 -2 -2 -2 -2 -2 -1 -1 -1
0 1 4 7 9 10 10 9 8 7 7 6 7 5 6 6 3 2 1 -0 -1 -1 -1 -2 -2 -2 -2 -2 -2 -2 -2 -2 -2 -2 -2 -2 -2 -2 -2 -2 -2 -2 -2 -2 -2 -2 -2 -2 -1
1 2 4 8 10 9 8 6 8 8 7 6 6 7 4 2 2 1 1 1 1 0 -1 -2 -1 -1 -1 -2 -2 -2 -2 -2 -2 -2 -2 -2 -2 -2 -2 -2 -2 -2 -2 -2 -2 -2 -2 -2 -2
1 3 8 9 10 8 8 8 7 7 7 7 6 6 5 3 1 2 1 1 1 1 -1 -1 -1 -1 -1 -2 -2 -2 -2 -2 -3 -2 -2 -3 -2 -2 -2 -2 -2 -2 -2 -2 -2 -2 -2 -2 -2
4 4 9 11 10 8 7 7 8 7 7 7 6 6 5 2 2 2 1 1 -1 -0 -1 -1 -1 -1 -1 -2 -2 -2 -2 -2 -2 -2 -2 -3 -2 -2 -2 -2 -2 -2 -2 -2 -2 -2 -2 -2 -2
6 7 9 10 9 8 7 7 8 7 7 7 5 6 4 3 3 3 2 2 1 0 -1 -1 -1 -1 -1 -0 -0 -1 -2 -2 -2 -2 -2 -2 -2 -2 -2 -2 -2 -2 -2 -2 -2 -2 -2 -2 -2
4 6 10 9 9 9 7 7 7 7 7 5 4 6 6 4 3 2 2 1 1 1 -0 -1 -0 -1 -2 -2 -2 -2 -2 -2 -2 -2 -2 -1 -1 -1 -2 -2 -2 -2 -2 -2 -2 -2 -2 -1 -2
4 8 10 9 9 7 8 8 7 6 6 6 5 5 4 4 3 2 2 1 0 0 -0 -1 -1 -1 -1 -1 -1 -1 -2 -2 -1 -1 -1 -1 -2 -2 -2 -2 -2 -2 -2 -2 -2 -2 -2 -2 -1
6 8 8 6 7 7 8 8 7 7 7 6 6 5 4 3 3 3 2 2 1 1 0 -0 -1 -1 -1 -1 -2 -2 -1 -1 -1 -2 -2 -2 -2 -2 -1 -1 -2 -2 -2 -2 -2 -2 -2 -2 -2
7 9 7 6 6 6 7 8 6 7 7 5 5 5 4 3 3 3 2 2 2 1 0 -0 -1 -1 -1 -1 -1 -1 -1 -1 -1 -1 -2 -2 -1 -1 -1 -1 -1 -2 -2 -1 -1 -1 -2 -1 -1
8 6 6 6 6 8 8 7 8 7 5 4 5 4 4 3 3 3 2 2 1 1 0 -0 -1 -1 -1 -1 -1 -1 -1 -1 -1 -1 -1 -1 -1 -1 -1 -1 -1 -1 -1 -1 -1 -1 -2 -1 -1
8 6 7 7 7 7 7 8 7 6 5 5 5 5 4 3 3 2 2 1 1 1 0 0 -1 -1 -1 -1 -1 -1 -1 -1 -1 -1 -1 -0 -1 -0 -1 -1 -1 -1 -1 -1 -1 -1 -1 -1 -1
7 7 8 8 8 8 7 8 7 6 5 5 5 4 4 4 4 3 2 2 1 1 0 0 -0 -1 -1 -1 -1 -0 -1 -1 -1 -0 -1 -1 -1 -1 -1 -1 -0 -1 -1 -1 -1 -1 -1 -1 -1
7 8 8 8 8 8 7 8 7 5 5 6 5 5 5 4 4 3 2 2 1 1 0 0 -0 -1 -1 -1 -1 -1 -1 -1 -1 -1 -1 -1 -1 -1 -1 -0 -0 -1 -2 -1 -2 -1 -1 -1 -1
8 9 10 8 8 8 7 9 6 5 6 6 6 5 5 5 4 3 2 1 1 0 0 -0 -0 -0 -0 -1 -1 -1 -1 -1 -1 -1 -1 -1 -1 -1 -1 -0 -0 -2 -1 -1 -0 -0 0 -0 0
10 11 10 10 7 8 9 9 6 6 6 5 6 6 6 5 4 3 1 1 1 0 0 0 -0 -0 -0 -1 -1 -1 -1 -1 -1 -1 -1 -1 -1 -1 -1 -0 -1 -1 -0 -0 -0 -0 0 1 1
11 11 11 10 8 8 9 9 6 6 6 5 6 6 6 6 5 3 1 1 1 0 0 0 -0 -0 -0 -0 -0 -0 -1 -1 -1 -1 -1 -1 -1 -1 -1 -0 -0 -1 -0 0 -0 0 -0 0 1
9 10 10 9 7 8 8 8 7 6 6 6 6 6 6 5 3 3 2 1 1 1 0 0 0 0 0 1 1 1 1 1 -0 -0 -0 -1 -1 -1 -1 -0 -0 -0 0 0 -0 0 1 1 1
9 10 10 9 8 8 7 8 6 6 5 5 5 6 6 5 4 3 2 1 1 1 1 0 0 -0 1 1 -0 1 0 0 0 -0 -0 -1 -1 -1 -1 -1 -0 -0 0 0 0 0 1 1 1
9 9 9 9 8 8 8 9 8 6 6 5 5 5 5 5 5 4 3 2 1 1 1 1 0 0 1 -0 0 0 -0 0 1 1 1 0 -1 -0 -1 -0 -1 -0 -0 0 0 0 1 3 1
10 7 8 9 9 12 9 13 9 7 7 6 5 6 6 5 5 3 3 2 2 1 1 1 1 0 1 -0 0 1 2 2 1 1 0 0 -1 -0 -1 -0 -0 0 -0 0 0 -0 1 1 3
8 7 8 8 10 10 10 11 9 8 8 6 5 6 6 6 5 4 3 2 1 1 1 0 1 0 0 0 0 1 1 1 0 0 1 0 -0 -0 -1 -0 0 0 0 0 0 1 1 0 1
6 8 9 9 10 13 10 11 10 9 7 6 6 6 7 6 5 3 2 2 2 1 1 0 1 1 0 0 0 0 1 1 2 1 1 1 1 -0 -0 -1 -0 -0 -0 0 0 -0 -0 0 0
7 9 13 14 14 14 10 11 9 7 6 6 6 6 7 6 6 4 3 2 2 2 1 1 1 1 1 1 0 0 1 0 1 2 2 2 1 1 0 -0 0 0 -0 -0 0 0 0 1 1
8 9 12 17 15 13 11 12 9 6 6 6 5 5 6 7 5 3 3 2 2 2 1 1 2 1 1 1 0 -0 1 2 1 1 1 1 1 1 -0 0 -0 -0 -0 -0 -0 0 0 -0 0
9 10 8 11 11 13 11 10 7 7 7 6 7 7 7 6 4 3 3 2 2 2 1 1 1 1 1 1 0 0 1 1 1 0 1 0 0 0 -0 -0 -0 -1 -0 -0 -0 0 0 1 1
7 7 11 10 15 17 12 12 11 8 7 7 7 7 7 6 4 3 3 2 2 1 1 1 1 1 1 1 -0 0 0 1 0 0 1 0 -0 1 1 1 1 1 -0 0 0 0 0 0 0
9 9 9 9 11 14 15 12 7 8 7 8 7 6 7 6 5 4 3 2 2 1 1 1 1 1 1 0 0 -0 0 0 -0 0 0 1 0 0 1 1 1 1 0 -0 -0 -0 0 0 0
7 8 8 12 13 11 12 12 6 7 7 6 7 6 6 5 5 4 3 2 2 2 1 1 1 1 1 0 0 0 0 0 0 0 -0 -0 -0 -0 -0 -0 0 1 1 0 0 0 0 0 1